GW0821 Weather Reports


time (UTC)temp
F
wind
direction
speed
knots
gust
knots
rain 1hr
in
rain 24hr
in
rain mn
in
humidity
%
barometer
mb
20260504184609 59 164 0.9 3.5 0.00 0.31 0.31 91 1009.8
20260504183052 59 227 0.0 2.6 0.00 0.31 0.31 90 1009.4
20260504181548 59 0 0.0 3.5 0.00 0.31 0.31 90 1009.2
20260504180049 60 0 0.9 2.6 0.00 0.31 0.31 89 1009.2
20260504174547 60 0 0.0 2.6 0.00 0.31 0.31 89 1009.1
20260504173052 60 204 1.7 5.2 0.00 0.31 0.31 88 1009.4
20260504171549 60 151 1.7 4.3 0.00 0.31 0.31 88 1009.5
20260504081542 66 272 0.9 3.5 0.00 0.00 0.00 68 1011.0
20260504044548 55 0 0.0 0.9 0.00 0.00 0.00 91 1011.5
20260504043042 55 0 0.0 0.9 0.00 0.00 0.00 90 1011.5
20260504041541 55 0 0.0 0.0 0.00 0.00 0.00 90 1011.6
20260504040054 55 0 0.0 0.0 0.00 0.00 0.00 90 1011.7
20260504034556 56 0 0.0 0.0 0.00 0.00 0.00 90 1011.6
20260504033109 56 0 0.0 0.9 0.00 0.00 0.00 89 1011.8
20260504031543 56 0 0.0 0.0 0.00 0.00 0.00 89 1011.9
20260504030046 56 0 0.0 0.9 0.00 0.00 0.00 90 1012.0
20260504024541 55 0 0.0 0.9 0.00 0.00 0.00 90 1011.9
20260504023056 55 0 0.0 0.9 0.00 0.00 0.00 90 1012.0
20260504021544 55 291 0.9 2.6 0.00 0.00 0.00 90 1012.1
20260504020045 55 90 0.9 3.5 0.00 0.00 0.00 91 1012.2
20260504014549 55 352 0.0 1.7 0.00 0.00 0.00 91 1012.3
20260504013047 55 0 0.0 0.0 0.00 0.00 0.00 91 1012.3
20260504011548 55 0 0.0 0.0 0.00 0.00 0.00 91 1012.5
20260504010054 55 0 0.0 0.0 0.00 0.00 0.00 91 1012.5
20260504004600 56 0 0.0 0.0 0.00 0.00 0.00 91 1012.7
20260504003042 56 0 0.0 0.0 0.00 0.00 0.00 91 1012.8
20260504001543 56 0 0.0 0.0 0.00 0.00 0.00 91 1012.8
20260504000045 56 0 0.0 0.0 0.00 0.00 0.00 91 1012.9
20260503234543 55 0 0.0 0.0 0.00 0.00 0.00 92 1013.0
20260503233044 55 0 0.0 0.9 0.00 0.00 0.00 92 1012.9
20260503231542 56 0 0.0 0.0 0.00 0.00 0.00 92 1013.1
20260503230046 55 0 0.0 0.9 0.00 0.00 0.00 91 1013.0
20260503224543 55 0 0.0 0.0 0.00 0.00 0.00 92 1013.1
20260503223054 55 0 0.0 0.9 0.00 0.00 0.00 91 1013.2
20260503221551 56 260 0.0 0.0 0.00 0.00 0.00 90 1013.2
20260503220050 56 0 0.0 0.0 0.00 0.00 0.00 89 1013.4
20260503214543 56 0 0.0 0.0 0.00 0.00 0.00 88 1013.4
20260503213100 56 0 0.0 0.9 0.00 0.00 0.00 88 1013.5
20260503211542 56 0 0.0 0.0 0.00 0.00 0.00 87 1013.5
20260503210048 57 0 0.0 1.7 0.00 0.00 0.00 85 1013.5
20260503204553 57 264 0.0 2.6 0.00 0.00 0.00 83 1013.6
20260503203038 57 224 0.0 2.6 0.00 0.00 0.00 81 1013.7
20260503201547 57 0 0.0 2.6 0.00 0.00 0.00 82 1013.5
20260503200049 57 0 0.0 1.7 0.00 0.00 0.00 82 1013.4
20260503194549 57 153 0.9 3.5 0.00 0.00 0.00 82 1013.2
20260503193052 58 147 0.0 2.6 0.00 0.00 0.00 81 1013.0
20260503191550 58 141 0.9 3.5 0.00 0.00 0.00 80 1013.0
20260503190040 58 149 0.9 4.3 0.00 0.00 0.00 79 1012.8